Home > Weather > Silvassa > Past weeks

Flag for India Past Weather in Silvassa, Dadra and Nagar Haveli, India — Yesterday and Last 2 Weeks

Now
88 °F

Passing clouds.


Feels Like: 100 °F
Forecast: 83 / 94 °F
Wind: 9 mph from West

Location: Mumbai / Santacruz

Current Time: May 28, 2016 at 11:37:33 PM

Latest Report: May 28, 2016 at 10:30 PM


Visibility: 2 mi

Pressure: 29.77 "Hg

Humidity: 70%

Dew Point: 77 °F

Location of SilvassaLocation

Past Weather in Silvassa — Graph

°F

Silvassa Temperature Yesterday

Maximum temperature yesterday: 93 °F (at 1:00 PM)
Minimum temperature yesterday: 86 °F (at 12:00 AM)
Average temperature yesterday: 89 °F

High & Low Weather Summary for the Past Weeks

 TemperatureHumidityPressure
High93 °F (May 19, 12:30 PM)84% (May 15, 10:30 PM)29.83 "Hg (May 15, 10:30 PM)
Low84 °F (May 15, 5:00 AM)59% (May 19, 12:30 PM)29.53 "Hg (May 18, 4:30 PM)
Average88 °F73%29.72 "Hg
* Reported May 13 10:30 PM — May 28 10:30 PM, Silvassa, Weather by CustomWeather, © 2016

Note: Actual official high and low records may vary slightly from our data, if they occured in-between our weather recording intervals... More about our weather records

Advertising

Silvassa Weather History for the Previous 24 Hours

Scroll right to see more
 ConditionsComfort  
Time TempWeatherWind HumidityBarometerVisibility
10:30 PM
Sat, May 28
88 °FPassing clouds.9 mph70%29.77 "Hg2 mi
9:30 PM88 °FPassing clouds.10 mph70%29.77 "Hg2 mi
9:00 PM88 °FPassing clouds.10 mph70%29.77 "Hg2 mi
8:30 PM88 °FPassing clouds.12 mph75%29.74 "Hg2 mi
8:00 PM88 °FPassing clouds.12 mph70%29.74 "Hg2 mi
7:30 PM88 °FScattered clouds.14 mph75%29.74 "Hg2 mi
7:00 PM88 °FScattered clouds.13 mph75%29.74 "Hg2 mi
6:30 PM88 °FScattered clouds.13 mph75%29.71 "Hg3 mi
6:00 PM90 °FScattered clouds.13 mph71%29.71 "Hg3 mi
5:30 PM90 °FScattered clouds.13 mph71%29.71 "Hg3 mi
5:00 PM90 °FScattered clouds.15 mph67%29.74 "Hg4 mi
4:30 PM91 °FScattered clouds.14 mph63%29.74 "Hg4 mi
4:00 PM91 °FScattered clouds.14 mph63%29.74 "Hg4 mi
3:30 PM91 °FScattered clouds.14 mph63%29.74 "Hg4 mi
3:00 PM91 °FScattered clouds.12 mph63%29.74 "Hg4 mi
2:30 PM91 °FScattered clouds.12 mph67%29.77 "Hg4 mi
2:00 PM91 °FScattered clouds.13 mph67%29.77 "Hg4 mi
1:30 PM93 °FScattered clouds.8 mph63%29.77 "Hg4 mi
1:00 PM91 °FScattered clouds.8 mph67%29.80 "Hg4 mi
12:30 PM91 °FScattered clouds.9 mph63%29.80 "Hg4 mi
12:00 PM93 °FScattered clouds.12 mph59%29.80 "Hg4 mi
11:30 AM91 °FScattered clouds.12 mph67%29.80 "Hg4 mi
11:00 AM91 °FScattered clouds.12 mph59%29.83 "Hg4 mi
10:30 AM91 °FScattered clouds.12 mph63%29.83 "Hg3 mi
10:00 AM90 °FScattered clouds.10 mph67%29.83 "Hg2 mi
9:30 AM88 °FScattered clouds.10 mph75%29.83 "Hg2 mi
9:00 AM88 °FScattered clouds.10 mph75%29.83 "Hg2 mi
8:30 AM88 °FScattered clouds.7 mph75%29.80 "Hg2 mi
8:00 AM88 °FScattered clouds.8 mph75%29.80 "Hg2 mi
7:30 AM88 °FScattered clouds.7 mph75%29.80 "Hg2 mi
7:00 AM88 °FScattered clouds.5 mph75%29.80 "Hg2 mi
6:30 AM86 °FScattered clouds.5 mph79%29.77 "Hg2 mi
6:00 AM86 °FPassing clouds.6 mph79%29.77 "Hg2 mi
5:30 AM86 °FPassing clouds.5 mph79%29.77 "Hg2 mi
5:00 AM86 °FPassing clouds.7 mph79%29.77 "Hg2 mi
4:30 AM86 °FPassing clouds.7 mph79%29.77 "Hg2 mi
4:00 AM86 °FPassing clouds.6 mph79%29.77 "Hg2 mi
3:30 AM86 °FPassing clouds.8 mph79%29.77 "Hg2 mi
3:00 AM86 °FPassing clouds.9 mph79%29.77 "Hg2 mi
12:30 AM88 °FPassing clouds.9 mph75%29.80 "Hg2 mi
12:00 AM88 °FPassing clouds.9 mph75%29.80 "Hg2 mi
11:30 PM
Fri, May 27
88 °FPassing clouds.10 mph70%29.80 "Hg2 mi
11:00 PM88 °FPassing clouds.9 mph75%29.80 "Hg2 mi
Weather by CustomWeather, © 2016

See weather overviewHow to use our weather pages